Content
SEND FEEDBACK

Daily
Averages
Monthly
Summary
Malaysia

KOTA KINABALU, MALAYSIA


Home > Asia > Malaysia
Elevation: 10 feet     Latitude: 05 55N     Longitude: 116 03E

WEATHER
 
SELECT A DAY
Number of Records: 269,987;   Date Range: 8/9/96 - 8/31/14
 
SHARE

PRINT THIS DATA

[ ← Previous Day ]
WEATHER ALMANAC - FEBRUARY 16, 2013
[ Next Day → ]
[ °C ]   °F
Weather ElementAverageHighLow
Temperature80.9 °F90 °F (2:00 pm)73.4 °F (6:00 am)
Dewpoint74.6 °F77 °F (10:00 am)71.6 °F (3:30 am)
Humidity81 %94 % (12:30 am)56 % (2:00 pm)
Barometer29.77 in29.83 in (8:30 am)29.68 in (4:30 pm)
Wind Speed4.6 mph10.4 mph (2:30 pm)
Weather ElementAverage
Visibility6.9 mi
Wind DirectionSSE (158.4 °)

Weather ElementTotal
Precipitation---
Cooling Degree Days16.7 (Base 65)
Growing Degree Days31.7 (Base 50)
Averaged from 55 records on February 16, 2013
WEATHER CONDITIONS BREAKOUT
WIND DIRECTION BREAKOUT
WEATHER BY HOUR - FEBRUARY 16, 2013
[ °C ]   °F
Local TimeTemperatureDewpointHumidityBarometerVisibilityWind DirectionWind SpeedGust SpeedPrecipitationEventsConditions
12:30 AM77.0 °F75.2 °F94 %29.80 in6.2 miESE (110°)3.5 mphMostly Cloudy
1:00 AM77.0 °F75.2 °F94 %29.80 in6.2 miEast (100°)3.5 mphMostly Cloudy
1:30 AM77.0 °F73.4 °F89 %29.80 in6.2 miEast (100°)4.6 mphMostly Cloudy
2:00 AM76.0 °F74.0 °F90 %29.79 in11.0 miEast (90°)2.3 mphScattered Clouds
2:00 AM77.0 °F73.4 °F89 %29.77 in6.2 miEast (90°)2.3 mphMostly Cloudy
2:30 AM77.0 °F73.4 °F89 %29.77 in6.2 miNE (50°)3.5 mphMostly Cloudy
3:00 AM75.2 °F73.4 °F94 %29.77 in6.2 miESE (110°)3.5 mphMostly Cloudy
3:30 AM75.2 °F71.6 °F89 %29.77 in6.2 miSE (130°)4.6 mphMostly Cloudy
4:00 AM75.2 °F71.6 °F89 %29.77 in6.2 miEast (100°)4.6 mphMostly Cloudy
4:30 AM75.2 °F71.6 °F89 %29.77 in6.2 miEast (100°)4.6 mphMostly Cloudy
5:00 AM75.0 °F72.0 °F88 %29.78 in12.0 miESE (120°)4.6 mphScattered Clouds
5:00 AM75.2 °F71.6 °F89 %29.77 in6.2 miESE (120°)4.6 mphMostly Cloudy
5:30 AM75.2 °F71.6 °F89 %29.77 in6.2 miESE (120°)4.6 mphMostly Cloudy
6:00 AM73.4 °F71.6 °F94 %29.80 in6.2 miENE (70°)3.5 mphMostly Cloudy
6:30 AM75.2 °F71.6 °F89 %29.80 in6.2 miSE (130°)3.5 mphMostly Cloudy
7:00 AM75.2 °F71.6 °F89 %29.80 in6.2 miEast (100°)2.3 mphMostly Cloudy
7:30 AM77.0 °F71.6 °F83 %29.80 in6.2 miESE (120°)3.5 mphMostly Cloudy
8:00 AM80.0 °F74.0 °F76 %29.82 in12.0 miESE (110°)3.5 mphHaze
8:00 AM80.6 °F73.4 °F79 %29.80 in6.2 miESE (110°)3.5 mphMostly Cloudy
8:30 AM80.6 °F73.4 °F79 %29.83 in6.2 miWNW (290°)1.2 mphMostly Cloudy
9:00 AM82.4 °F73.4 °F74 %29.83 in6.2 miWest (260°)2.3 mphMostly Cloudy
9:30 AM84.2 °F75.2 °F74 %29.83 in6.2 miWNW (290°)2.3 mphMostly Cloudy
10:00 AM84.2 °F77.0 °F79 %29.83 in6.2 miWNW (290°)2.3 mphMostly Cloudy
10:30 AM86.0 °F77.0 °F74 %29.83 in6.2 miNW (310°)3.5 mphMostly Cloudy
11:00 AM87.0 °F77.0 °F65 %29.83 in11.0 miWNW (300°)3.5 mphHaze
11:00 AM86.0 °F77.0 °F74 %29.83 in6.2 miWNW (300°)3.5 mphMostly Cloudy
11:30 AM87.8 °F77.0 °F70 %29.80 in6.2 miNW (310°)4.6 mphMostly Cloudy
12:00 PM86.0 °F77.0 °F74 %29.80 in6.2 miNW (310°)6.9 mphMostly Cloudy
12:30 PM87.8 °F75.2 °F66 %29.77 in6.2 miNorth (350°)5.8 mphMostly Cloudy
1:00 PM89.6 °F75.2 °F62 %29.77 in6.2 miNW (320°)4.6 mphMostly Cloudy
1:30 PM87.8 °F77.0 °F70 %29.74 in6.2 miNW (320°)5.8 mphMostly Cloudy
2:00 PM90.0 °F76.0 °F56 %29.73 in12.0 miNorth (350°)6.9 mphHaze
2:00 PM89.6 °F77.0 °F66 %29.71 in6.2 miNorth (350°)6.9 mphMostly Cloudy
2:30 PM87.8 °F75.2 °F66 %29.71 in6.2 miNorth (10°)10.4 mphMostly Cloudy
3:00 PM84.2 °F75.2 °F74 %29.71 in6.2 miNorth (10°)10.4 mphMostly Cloudy
3:30 PM82.4 °F75.2 °F79 %29.71 in6.2 miNNE (20°)9.2 mphMostly Cloudy
4:00 PM84.2 °F75.2 °F74 %29.71 in6.2 miNNE (20°)10.4 mphMostly Cloudy
4:30 PM84.2 °F75.2 °F74 %29.68 in6.2 miNNE (30°)10.4 mphMostly Cloudy
5:00 PM84.0 °F76.0 °F70 %29.70 in10.0 miNNE (20°)9.2 mphPartly Cloudy
5:00 PM84.2 °F75.2 °F74 %29.68 in6.2 miNNE (20°)9.2 mphMostly Cloudy
5:30 PM84.2 °F75.2 °F74 %29.71 in6.2 miNNE (20°)9.2 mphMostly Cloudy
6:00 PM82.4 °F75.2 °F79 %29.71 in6.2 miNNE (20°)8.1 mphMostly Cloudy
6:30 PM82.4 °F75.2 °F79 %29.74 in6.2 miNE (50°)6.9 mphMostly Cloudy
7:00 PM82.4 °F75.2 °F79 %29.74 in6.2 miNE (50°)3.5 mphMostly Cloudy
7:30 PM80.6 °F77.0 °F89 %29.74 in6.2 miSE (140°)1.2 mphMostly Cloudy
8:00 PM81.0 °F76.0 °F80 %29.75 in11.0 miNW (320°)2.3 mphPartly Cloudy
8:00 PM80.6 °F75.2 °F84 %29.74 in6.2 miNW (320°)2.3 mphMostly Cloudy
8:30 PM80.6 °F77.0 °F89 %29.74 in6.2 miSW (230°)2.3 mphMostly Cloudy
9:00 PM78.8 °F75.2 °F89 %29.77 in6.2 miSSW (210°)3.5 mphMostly Cloudy
9:30 PM78.8 °F75.2 °F89 %29.77 in6.2 miSSE (160°)2.3 mphMostly Cloudy
10:00 PM78.8 °F75.2 °F89 %29.77 in6.2 miSSE (160°)2.3 mphMostly Cloudy
10:30 PM78.8 °F75.2 °F89 %29.80 in6.2 miCalmMostly Cloudy
11:00 PM78.0 °F75.0 °F89 %29.80 in11.0 miSouth (190°)3.5 mphPartly Cloudy
11:00 PM77.0 °F75.2 °F94 %29.80 in6.2 miSouth (190°)3.5 mphMostly Cloudy
11:30 PM78.8 °F75.2 °F89 %29.80 in6.2 miSouth (190°)3.5 mphMostly Cloudy
Hourly data recorded from WBKK, located miles away from Kota Kinabalu, Malaysia







STORIES FROM OUR PARTNERS